Cloud_Cover
0 0 0 0 0 0 0 0 0 0 0 0 0 0 0 0 44 76 88 80 88 92 88 76 44 36 36 36 24 24 24 12 32 24 24 36 44 44 56 76 88 92 92 92 92 92 92 92 92 92 88 92 88 80 80 80 88 88 88 88 80 76 76 80 76 80 80 80 68
0 0 0 0 0 0 0 0 0 0 0 0 0 0 0 8 56 80 92 76 76 80 68 44 20 8 0 8 20 20 24 32 24 20 20 12 32 48 76 88 88 92 92 92 92 92 92 92 92 92 88 92 76 76 80 64 76 80 80 80 76 68 64 76 68 68 76 80 76
0 0 0 0 0 0 0 0 0 0 0 0 0 0 8 20 64 80 76 76 68 64 48 32 8 32 68 88 88 88 76 36 32 32 36 44 64 80 88 92 92 88 88 92 92 92 92 92 88 88 88 88 80 88 88 80 88 92 92 80 76 76 76 68 68 80 88 88 88
0 0 0 0 0 0 0 0 0 0 0 0 0 8 20 32 68 76 76 76 64 44 32 32 36 68 92 92 92 68 36 24 20 20 32 68 56 76 92 92 92 92 92 92 92 92 92 92 92 88 80 76 68 64 64 68 64 64 48 20 56 76 88 88 88 88 88 88 88
0 0 0 0 0 0 0 0 0 0 0 0 0 12 32 24 68 80 76 76 76 64 32 0 44 80 88 56 44 32 20 8 0 0 20 92 92 92 92 92 92 92 92 80 76 80 80 76 76 56 36 32 44 48 44 44 36 32 32 44 44 64 76 88 88 88 88 88 88
0 0 0 0 0 0 0 0 0 0 0 0 0 0 8 8 24 48 68 80 80 64 48 44 80 68 36 20 20 12 0 0 0 44 92 92 92 92 92 92 92 92 92 80 80 56 24 20 12 8 8 12 12 8 12 24 36 44 56 88 80 88 88 88 88 88 88 88 92
0 0 0 0 0 0 0 0 0 0 0 0 0 0 20 76 36 44 68 68 56 64 76 92 36 24 32 36 44 24 8 8 48 80 92 92 92 92 92 92 80 88 92 92 56 32 24 36 32 24 20 0 0 0 8 20 56 76 80 88 88 88 88 88 88 88 88 92 92
0 0 0 0 0 0 0 0 0 0 0 0 0 0 24 88 64 68 80 76 68 64 56 48 20 20 44 68 56 36 44 88 92 92 92 92 92 88 76 76 76 76 76 68 44 24 12 8 0 0 0 0 0 0 0 8 20 24 36 76 80 80 76 68 76 80 88 88 80
0 0 0 0 0 0 0 0 0 0 0 0 0 0 12 48 64 80 92 92 68 56 44 44 24 20 20 20 56 80 92 92 92 92 92 92 92 68 44 36 24 32 44 44 24 20 20 24 32 32 24 20 8 0 0 0 8 12 20 24 48 64 64 44 64 68 56 12 24
0 0 0 0 0 0 0 0 0 0 0 8 8 8 12 48 44 56 68 68 56 44 24 20 20 24 44 92 92 92 92 92 64 64 68 68 64 64 64 48 32 12 8 8 12 24 32 24 20 8 0 0 0 0 8 0 0 12 20 12 8 8 8 12 32 36 32 0 8
0 0 0 0 0 0 0 0 0 0 8 12 8 12 44 88 36 32 36 24 32 20 0 0 68 92 92 88 92 80 76 68 48 36 36 44 24 8 0 0 8 8 0 0 0 0 0 0 0 0 0 0 0 8 0 0 0 0 0 0 0 0 0 0 0 8 8 0 0
0 0 0 0 0 0 0 0 0 0 0 8 8 12 24 56 24 12 12 8 0 8 12 24 76 92 88 68 76 76 76 64 44 32 20 8 0 0 0 0 0 0 0 0 0 0 0 0 0 0 0 8 0 0 0 0 0 0 0 0 0 0 0 0 0 0 0 0 0
0 0 0 0 0 0 0 0 0 0 0 0 0 0 8 36 24 12 8 8 12 36 64 92 92 88 76 68 76 68 64 36 8 0 0 0 0 0 0 0 0 0 0 0 0 0 0 0 0 0 0 8 0 0 0 0 0 0 0 0 0 0 0 0 0 0 0 0 0
0 0 0 0 0 0 0 0 0 0 0 0 0 0 8 24 44 36 32 44 56 80 92 92 92 80 64 56 64 44 24 0 0 0 0 0 0 0 0 0 0 0 0 0 0 0 0 0 0 0 0 0 0 0 0 0 0 0 0 0 0 0 0 0 0 0 0 0 0
0 0 0 0 0 0 0 0 0 0 0 0 0 12 24 48 68 68 64 64 68 80 88 80 68 56 44 44 32 12 0 0 0 0 0 0 0 0 0 0 0 0 0 0 0 0 0 8 0 0 0 0 0 0 0 0 0 0 0 0 0 0 0 0 0 0 0 0 0
0 0 0 0 0 0 0 0 0 0 8 24 36 44 56 68 76 76 68 56 56 56 56 48 24 20 12 8 8 0 0 0 0 0 0 0 0 0 0 0 0 0 0 0 0 0 0 0 0 0 0 0 0 0 0 0 0 0 0 0 0 0 0 0 0 0 0 0 0
0 0 0 0 0 0 0 0 0 12 36 76 76 68 56 64 64 68 76 76 56 44 32 24 20 8 0 0 0 0 0 0 0 0 0 0 0 0 8 8 8 8 0 0 0 0 0 0 0 0 0 0 0 0 0 0 0 0 0 0 0 0 0 0 0 0 0 0 0
8 8 8 8 12 24 36 44 32 44 68 88 68 56 48 56 48 48 48 48 44 32 20 12 8 8 0 0 0 0 0 0 0 0 0 0 0 20 32 24 12 8 0 0 0 0 0 0 0 0 0 0 0 0 0 0 0 0 0 0 0 0 0 0 0 0 0 0 0
12 20 24 32 32 36 44 48 44 48 56 56 36 32 32 32 20 12 12 8 12 8 8 8 0 0 0 0 0 0 0 0 0 0 8 20 8 8 12 8 0 0 0 0 0 0 0 0 0 0 0 0 0 0 0 0 0 0 0 0 0 0 0 0 0 0 0 0 0
8 12 12 20 20 20 20 20 20 20 20 12 8 8 8 8 0 0 0 0 0 0 0 0 0 0 0 0 0 0 0 0 0 0 8 12 0 0 0 0 0 0 0 0 0 0 0 0 0 0 0 0 0 0 0 0 0 0 0 0 0 0 0 0 0 0 0 0 0
0 0 0 0 0 0 8 8 0 0 0 0 0 0 0 0 0 0 0 0 0 0 0 0 0 0 0 0 0 0 0 0 0 0 0 0 0 0 0 0 0 0 0 0 0 0 0 0 0 0 0 0 0 0 0 0 0 0 0 0 0 0 0 0 0 0 0 0 0
0 0 0 0 0 0 0 0 0 0 0 0 0 0 0 0 0 0 0 0 0 0 0 0 0 0 0 0 0 0 0 0 0 0 0 0 0 0 0 0 0 0 0 0 0 0 0 0 0 0 0 0 0 0 0 0 0 0 0 0 0 0 0 0 0 0 0 0 0
0 0 0 0 0 0 0 0 0 0 0 0 0 0 0 0 0 0 0 0 0 0 0 0 0 0 0 0 0 0 0 0 0 0 0 0 0 0 0 0 0 0 0 0 0 0 0 0 0 0 0 0 0 0 0 0 0 0 0 0 0 0 0 0 0 0 0 0 0
0 0 0 0 0 0 0 0 0 0 0 0 0 0 0 0 0 0 0 0 0 0 0 0 0 0 0 0 0 0 0 0 0 0 0 0 0 0 0 0 0 0 0 0 0 0 0 0 0 0 0 0 0 0 0 0 0 0 0 0 0 0 0 0 0 0 0 0 0
0 0 0 0 0 0 0 0 0 0 0 0 0 0 0 0 0 0 0 0 0 0 0 0 0 0 0 0 0 0 0 0 0 0 0 0 0 0 0 0 0 0 0 0 0 0 0 0 0 0 0 0 0 0 0 0 0 0 0 0 0 0 0 0 0 0 0 0 0
0 0 0 0 0 0 0 0 0 0 0 0 0 0 0 0 0 0 0 0 0 0 0 0 0 0 0 0 0 0 0 0 0 0 0 0 0 0 0 0 0 0 0 0 0 0 0 0 0 0 0 0 0 0 0 0 0 0 0 0 0 0 0 0 0 0 0 0 0
0 0 0 0 0 0 0 0 0 0 0 0 0 0 0 0 0 0 0 0 0 0 0 0 0 0 0 0 0 0 0 0 0 0 0 0 0 0 0 0 0 0 0 0 0 0 0 0 0 0 0 0 0 0 0 0 0 0 0 0 0 0 0 0 0 0 0 0 0
0 0 0 0 0 0 0 0 0 0 0 0 0 0 0 0 0 0 0 0 0 0 0 0 0 0 0 0 0 0 0 0 0 0 0 0 0 0 0 0 0 0 0 0 0 0 0 0 0 0 0 0 0 0 0 0 0 0 0 0 0 0 0 0 0 0 0 0 0
0 0 0 0 0 0 0 0 0 0 0 0 0 0 0 0 0 0 0 0 0 0 0 0 0 0 0 0 0 0 0 0 0 0 0 0 0 0 0 0 0 0 0 0 0 0 0 0 0 0 0 0 0 0 0 0 0 0 0 0 0 0 0 0 0 0 0 0 0
0 0 0 0 0 0 0 0 0 0 0 0 0 0 0 0 0 0 0 0 0 0 0 0 0 0 0 0 0 0 0 0 0 0 0 0 0 0 0 0 0 0 0 0 0 0 0 0 0 0 0 0 0 0 0 0 0 0 0 0 0 0 0 0 0 0 0 0 0
0 0 0 0 0 0 0 0 0 0 0 0 0 0 0 0 0 0 0 0 0 0 0 0 0 0 0 0 0 0 0 0 0 0 0 0 0 0 0 0 0 0 0 0 0 0 0 0 0 0 0 0 0 0 0 0 0 0 0 0 0 0 0 0 0 0 0 0 0
0 0 0 0 0 0 0 0 0 0 0 0 0 0 0 0 0 0 0 0 0 0 0 0 0 0 0 0 0 0 0 0 0 0 0 0 0 0 0 0 0 0 0 0 0 0 0 0 0 0 0 0 0 0 0 0 0 0 0 0 0 0 0 0 0 0 0 0 0
0 0 0 0 0 0 0 0 0 0 0 0 0 0 0 0 0 0 0 0 0 0 0 0 0 0 0 0 0 0 0 0 0 0 0 0 0 0 0 0 0 0 0 0 8 8 8 0 0 0 0 0 0 0 0 0 0 0 0 0 0 0 0 0 0 0 0 0 0
0 0 0 0 0 0 0 0 0 0 0 0 0 0 0 0 0 0 0 0 0 0 0 0 0 0 0 0 0 0 0 0 0 0 0 0 0 0 0 0 0 0 0 8 12 20 20 8 0 0 0 0 0 0 0 0 0 0 0 0 0 0 0 0 0 0 0 0 0
0 0 0 0 0 0 0 0 0 0 0 0 0 0 0 0 0 0 0 0 0 0 0 0 0 0 0 0 0 0 0 0 0 0 0 0 0 0 0 0 0 8 12 20 24 36 44 24 12 8 0 0 0 0 0 0 0 0 0 0 0 0 0 0 0 0 0 0 0
0 0 0 0 0 0 0 0 0 0 0 0 0 0 0 0 0 0 0 0 0 0 0 0 0 0 0 0 0 0 0 0 0 0 0 0 0 0 0 0 0 12 32 48 64 68 64 68 24 12 8 0 0 0 0 0 20 20 8 0 0 0 0 0 0 0 0 0 0
0 0 0 0 0 0 0 0 0 0 0 0 0 0 0 0 0 0 0 0 0 0 0 0 0 0 0 0 0 0 0 0 0 0 0 0 0 0 0 0 8 24 48 88 80 80 88 76 64 32 8 0 0 0 8 24 56 44 20 8 8 8 0 0 0 0 0 0 0
0 0 0 0 0 0 0 0 0 0 0 0 0 0 0 0 0 0 0 0 0 0 0 0 0 0 0 0 0 0 0 0 0 0 0 0 0 0 0 0 32 44 48 64 64 76 80 48 80 68 32 0 0 0 20 76 36 20 8 8 8 0 0 0 0 0 0 0 0
0 0 0 0 0 0 0 0 0 0 0 0 0 0 0 0 0 0 0 0 0 0 0 0 0 0 0 0 0 0 0 0 0 0 0 0 0 0 0 0 32 36 36 24 68 80 76 68 76 80 56 0 0 0 20 68 48 32 12 0 0 0 0 0 0 0 0 0 0
0 0 0 0 0 0 0 0 0 0 0 0 0 0 0 0 0 0 0 0 0 0 0 0 0 0 0 0 0 0 0 0 0 0 0 0 0 0 0 0 0 8 12 20 36 56 76 88 80 76 56 0 0 12 44 88 80 56 20 0 0 0 0 0 0 0 0 0 0
0 0 0 0 0 0 0 0 0 0 0 0 0 0 0 0 0 0 0 0 0 0 0 0 0 0 0 0 0 0 0 0 0 0 0 0 0 0 0 0 0 0 0 0 36 68 88 88 76 76 76 36 24 44 68 64 76 48 12 0 0 0 0 0 0 0 0 0 0